Onweer radar more information blitzortung!


Regen radar more information rain snow radar


Meteo Sauwerd

Weerstation Alkmaar Centrum

Weerstation Luyksgestel

Website Noardburgum

Weerstation Noordbergum



Extreme hitte van: 24-08-2019 21:00 tot: 26-08-2019 21:00 waarschuwing voor: Extreme hitte niveau: Geel info button

Select another period ( hide this area )

Eenheden Periode Custom range Directly to
Metrisch Engels Beide
Dagelijkse Wekelijkse Maandelijkse Jaarlijkse
use both date-selectors for a custom range
previous Dag
With this date

WeatherUnderground graphs for this period ( click here )


Dagelijkse Samenvatting Zondag 25 augustus 2019
Tijd Temp. ( °C ) Dew pt. ( °C ) Wind ( km/h ) van Windvlaag ( km/h ) Luchtdruk ( hPa ) Humid.( % ) Rainrate ( cm ) Zonneschijn ( W/m2 )
Hoog19,1 14,9 7,9 ONO ( 98/142 ) 11,3 1019,2 80 - 0
Gemiddeld18,4 14,6 5,1 ONO #19/28 8,1 1019,1 78 - NAN #0/28
Laag17,8 14,3 3,2   6,4 1018,8 76 -  
Dagelijkse Tabular details for Zondag 25 augustus 2019
Tijd Temp. ( °C ) Dew pt. ( °C ) Wind ( km/h ) van Windvlaag ( km/h ) Luchtdruk ( hPa ) Humid.( % ) Rainrate ( cm ) Zonneschijn ( W/m2 )
00:00 19,1 14,8 4,7 ONO 8,0 1019,2 76 - -
00:05 18,9 14,8 4,7 Oosten 6,4 1019,2 77 - -
00:10 19,0 14,9 4,7 ONO 9,7 1019,2 77 - -
00:15 18,8 14,7 4,7 Oosten 9,7 1019,2 77 - -
00:20 19,0 14,7 7,9 ONO 8,0 1019,2 76 - -
00:25 19,1 14,8 7,9 Oosten 8,0 1019,2 76 - -
00:30 18,9 14,6 4,7 ONO 6,4 1019,2 76 - -
00:35 18,7 14,8 6,4 ONO 6,4 1019,2 78 - -
00:40 18,7 14,6 6,4 ONO 6,4 1019,2 77 - -
00:45 18,6 14,5 7,9 ONO 8,0 1019,2 77 - -
00:50 18,6 14,7 4,7 Oosten 6,4 1019,2 78 - -
00:55 18,5 14,6 3,2 ONO 8,0 1019,2 78 - -
01:00 18,2 14,5 4,7 Oosten 9,7 1019,2 79 - -
01:05 18,3 14,6 6,4 ONO 8,0 1019,2 79 - -
01:10 18,1 14,4 4,7 ONO 11,3 1019,2 79 - -
01:15 18,2 14,5 3,2 ONO 8,0 1019,2 79 - -
01:20 18,2 14,7 4,7 ONO 8,0 1019,2 80 - -
01:25 18,1 14,6 4,7 ONO 6,4 1019,2 80 - -
01:30 18,2 14,7 4,7 ONO 9,7 1019,2 80 - -
01:35 18,3 14,6 3,2 ONO 8,0 1018,8 79 - -
01:40 18,3 14,6 6,4 ONO 11,3 1018,8 79 - -
01:45 18,2 14,5 4,7 Oosten 6,4 1018,8 79 - -
01:50 18,2 14,5 4,7 Oosten 6,4 1018,8 79 - -
01:55 18,1 14,6 4,7 ONO 9,7 1018,8 80 - -
02:00 18,2 14,7 3,2 Oosten 11,3 1018,8 80 - -
02:05 18,0 14,5 4,7 ONO 9,7 1018,8 80 - -
02:10 18,1 14,6 4,7 ONO 6,4 1018,8 80 - -
02:15 17,8 14,3 4,7 Oosten 6,4 1018,8 80 - -
Dagelijkse Samenvatting Zondag 25 augustus 2019
Tijd Temp. ( °C ) Dew pt. ( °C ) Wind ( km/h ) van Windvlaag ( km/h ) Luchtdruk ( hPa ) Humid.( % ) Rainrate ( cm ) Zonneschijn ( W/m2 )
Hoog19,1 14,9 7,9 ONO ( 98/142 ) 11,3 1019,2 80 - 0
Gemiddeld18,4 14,6 5,1 ONO #19/28 8,1 1019,1 78 - NAN #0/28
Laag17,8 14,3 3,2   6,4 1018,8 76 -  
Dagelijkse Tabular details for Zondag 25 augustus 2019
Tijd Temp. ( °C ) Dew pt. ( °C ) Wind ( km/h ) van Windvlaag ( km/h ) Luchtdruk ( hPa ) Humid.( % ) Rainrate ( cm ) Zonneschijn ( W/m2 )
00:00 19,1 14,8 4,7 ONO 8,0 1019,2 76 - -
00:05 18,9 14,8 4,7 Oosten 6,4 1019,2 77 - -
00:10 19,0 14,9 4,7 ONO 9,7 1019,2 77 - -
00:15 18,8 14,7 4,7 Oosten 9,7 1019,2 77 - -
00:20 19,0 14,7 7,9 ONO 8,0 1019,2 76 - -
00:25 19,1 14,8 7,9 Oosten 8,0 1019,2 76 - -
00:30 18,9 14,6 4,7 ONO 6,4 1019,2 76 - -
00:35 18,7 14,8 6,4 ONO 6,4 1019,2 78 - -
00:40 18,7 14,6 6,4 ONO 6,4 1019,2 77 - -
00:45 18,6 14,5 7,9 ONO 8,0 1019,2 77 - -
00:50 18,6 14,7 4,7 Oosten 6,4 1019,2 78 - -
00:55 18,5 14,6 3,2 ONO 8,0 1019,2 78 - -
01:00 18,2 14,5 4,7 Oosten 9,7 1019,2 79 - -
01:05 18,3 14,6 6,4 ONO 8,0 1019,2 79 - -
01:10 18,1 14,4 4,7 ONO 11,3 1019,2 79 - -
01:15 18,2 14,5 3,2 ONO 8,0 1019,2 79 - -
01:20 18,2 14,7 4,7 ONO 8,0 1019,2 80 - -
01:25 18,1 14,6 4,7 ONO 6,4 1019,2 80 - -
01:30 18,2 14,7 4,7 ONO 9,7 1019,2 80 - -
01:35 18,3 14,6 3,2 ONO 8,0 1018,8 79 - -
01:40 18,3 14,6 6,4 ONO 11,3 1018,8 79 - -
01:45 18,2 14,5 4,7 Oosten 6,4 1018,8 79 - -
01:50 18,2 14,5 4,7 Oosten 6,4 1018,8 79 - -
01:55 18,1 14,6 4,7 ONO 9,7 1018,8 80 - -
02:00 18,2 14,7 3,2 Oosten 11,3 1018,8 80 - -
02:05 18,0 14,5 4,7 ONO 9,7 1018,8 80 - -
02:10 18,1 14,6 4,7 ONO 6,4 1018,8 80 - -
02:15 17,8 14,3 4,7 Oosten 6,4 1018,8 80 - -

Download your copy of this data-set  here

Our weather-data as stored at Weather Underground. Script ontwikkeld door Jim McMurry. Aangepast voor de template door Leuven-Template.eu

U vindt ons ook hier:

Het Weer Aktueel

UK Metoffice

European Weather Network

Weather Underground

AWEKAS

Citizen Weather Observer Program (CWOP)

HAMweather, WeatherForYou, PWS Weather

Apparatuur in gebruik:

Weerstation
Davis Vantage pro 2

Weerprogramma
Meteobridge

Weercomputer
TP-Link TL-WR703N

Webleverancier
Versio

Davis Vantage pro 2

Meteobridge

TP-Link TL-WR703N

Versio